Location: Großmugl Leeberg
(48.4883°N, 16.2231°E)
Time: 08:39:00
(UTC+02:00)

ISS - Visible Passes

Search period start: 30 April 2025 00:00
Search period end: 10 May 2025 00:00
Orbit: 417 x 420 km, 51.6° (Epoch: 29 April)

Date Brightness Start Highest point End Pass type
(mag) Time Alt. Az. Time Alt. Az. Time Alt. Az.
30 Apr -3.7 03:00:32 78° NE 03:00:32 78° NE 03:03:42 10° ENE visible
30 Apr -2.8 04:34:05 10° WNW 04:37:21 46° N 04:40:37 10° ENE visible
01 May -1.9 02:14:15 26° ENE 02:14:15 26° ENE 02:15:52 10° ENE visible
01 May -3.0 03:47:10 18° WNW 03:49:26 49° N 03:52:43 10° ENE visible
02 May -0.7 01:27:57 10° ENE 01:27:57 10° ENE 01:27:57 10° ENE visible
02 May -3.2 03:00:51 46° NW 03:01:29 55° N 03:04:49 10° ENE visible
02 May -2.9 04:35:17 10° WNW 04:38:35 52° N 04:41:53 10° E visible
03 May -2.6 02:14:31 41° NE 02:14:31 41° NE 02:16:54 10° ENE visible
03 May -2.8 03:47:26 11° WNW 03:50:36 47° N 03:53:53 10° E visible
04 May -1.2 01:28:09 16° ENE 01:28:09 16° ENE 01:28:58 10° ENE visible
04 May -2.8 03:01:03 26° WNW 03:02:37 47° N 03:05:52 10° ENE visible
04 May -3.6 04:36:16 10° WNW 04:39:39 75° NNE 04:43:00 10° ESE visible
05 May -2.9 02:14:39 49° N 02:14:39 49° N 02:17:52 10° ENE visible
05 May -3.2 03:48:19 10° WNW 03:51:39 60° NNE 03:54:59 10° E visible
06 May -1.7 01:28:16 25° ENE 01:28:16 25° ENE 01:29:51 10° ENE visible
06 May -3.0 03:01:10 16° WNW 03:03:37 51° N 03:06:55 10° E visible
06 May -3.7 04:37:09 10° WNW 04:40:29 59° SSW 04:43:46 10° SE visible
07 May -2.8 02:14:49 39° NW 02:15:32 47° N 02:18:48 10° E visible
07 May -3.9 03:49:08 10° WNW 03:52:30 84° SSW 03:55:52 10° ESE visible
08 May -2.2 01:28:33 32° NE 01:28:33 32° NE 01:30:42 10° ENE visible
08 May -3.6 03:01:28 13° WNW 03:04:28 74° NNE 03:07:49 10° ESE visible
08 May -2.8 04:38:07 10° W 04:41:01 27° SW 04:43:56 10° SSE visible
08 May -1.8 21:24:20 10° SSE 21:25:14 13° SSE 21:25:14 13° SSE visible
09 May -3.3 02:15:34 44° NW 02:16:22 59° NNE 02:19:42 10° E visible
09 May -3.4 03:49:54 10° WNW 03:53:05 41° SSW 03:56:16 10° SE visible
09 May -3.5 22:11:10 10° SW 22:14:23 45° SSE 22:16:53 15° E visible
09 May -2.5 23:47:50 10° W 23:50:03 36° WNW 23:50:03 36° WNW visible
